Date Time,Air Temp,Sky Temp,Clarity,Light Level,Rain Sensor,Readings
2019-04-05 00:00:03,19.7,-3.4,23.1,0.0,2.5,112
2019-04-05 00:05:03,20.0,-4.9,24.9,0.0,2.4,111
2019-04-05 00:10:03,20.0,-6.1,26.1,0.0,2.3,112
2019-04-05 00:15:03,20.0,-7.4,27.5,0.0,2.3,111
2019-04-05 00:20:03,20.0,-8.8,28.8,0.0,2.4,112
2019-04-05 00:25:03,20.0,-9.0,29.0,0.0,2.5,112
2019-04-05 00:30:03,20.0,-9.4,29.4,0.0,2.5,112
2019-04-05 00:35:03,20.0,-11.3,31.3,0.0,2.3,111
2019-04-05 00:40:03,19.8,-12.9,32.7,0.0,2.3,111
2019-04-05 00:45:03,19.8,-12.6,32.4,0.0,2.3,112
2019-04-05 00:50:03,19.7,-12.3,31.9,0.0,2.3,111
2019-04-05 00:55:03,19.7,-11.5,31.2,0.0,2.3,111
2019-04-05 01:00:03,19.8,-9.4,29.2,0.0,2.2,112
2019-04-05 01:05:03,19.8,-6.3,26.2,0.0,2.2,111
2019-04-05 01:10:03,19.9,-6.7,26.6,0.0,2.2,112
2019-04-05 01:15:03,19.9,-5.5,25.5,0.0,2.2,111
2019-04-05 01:20:03,20.0,-6.3,26.4,0.0,2.2,112
2019-04-05 01:25:03,20.1,-6.9,27.0,0.0,2.2,111
2019-04-05 01:30:03,20.2,-4.5,24.7,0.0,2.3,112
2019-04-05 01:35:03,20.2,-5.8,26.1,0.0,2.3,112
2019-04-05 01:40:03,20.2,-8.6,28.9,0.0,2.3,111
2019-04-05 01:45:03,20.1,-9.1,29.3,0.0,2.3,112
2019-04-05 01:50:03,20.1,-6.9,27.0,0.0,2.3,111
2019-04-05 01:55:03,20.1,-4.7,24.8,0.0,2.3,112
2019-04-05 02:00:03,19.8,-7.0,26.8,0.0,2.3,112
2019-04-05 02:05:03,20.2,-8.8,29.0,0.0,2.3,112
2019-04-05 02:10:03,20.2,-9.0,29.3,0.0,2.3,112
2019-04-05 02:15:03,20.2,-7.9,28.0,0.0,2.3,111
2019-04-05 02:20:03,20.1,-7.9,28.0,0.0,2.3,112
2019-04-05 02:25:03,20.1,-8.5,28.6,0.0,2.3,112
2019-04-05 02:30:03,20.1,-8.4,28.5,0.0,2.3,111
2019-04-05 02:35:03,20.1,-8.9,28.9,0.0,2.3,112
2019-04-05 02:40:03,20.1,-8.2,28.3,0.0,2.3,112
2019-04-05 02:45:03,20.1,-5.4,25.5,0.0,2.3,112
2019-04-05 02:50:03,20.2,-3.2,23.4,0.0,2.3,111
2019-04-05 02:55:03,20.3,-2.1,22.4,0.0,2.3,112
2019-04-05 03:00:03,20.4,-1.5,21.8,0.0,2.3,112
2019-04-05 03:05:03,20.4,-0.9,21.3,0.0,2.3,111
2019-04-05 03:10:03,20.4,-1.1,21.6,0.0,2.3,112
2019-04-05 03:15:03,20.5,-0.5,21.0,0.0,2.4,112
2019-04-05 03:20:03,19.7,-0.1,19.8,0.0,2.2,111
2019-04-05 03:25:03,17.2,0.2,17.1,0.0,2.3,112
2019-04-05 03:30:03,16.3,0.3,16.0,0.0,2.3,111
2019-04-05 03:35:03,16.0,0.8,15.2,0.0,2.3,111
2019-04-05 03:40:03,15.6,0.8,14.8,0.0,2.3,111
2019-04-05 03:45:03,15.8,1.7,14.1,0.0,2.4,111
2019-04-05 03:50:03,15.8,1.6,14.2,0.0,8.3,111
2019-04-05 03:55:03,15.5,1.2,14.3,0.0,14.4,111
2019-04-05 04:00:03,15.1,2.2,12.9,0.0,12.0,111
2019-04-05 04:05:03,14.8,1.8,13.0,0.0,5.0,111
2019-04-05 04:10:03,14.6,1.7,12.9,0.0,4.8,111
2019-04-05 04:15:03,14.4,1.6,12.8,0.0,2.6,111
2019-04-05 04:20:03,14.4,0.8,13.6,0.0,2.6,111
2019-04-05 04:25:03,14.5,1.1,13.4,0.0,2.5,111
2019-04-05 04:30:03,14.7,1.0,13.7,0.0,2.4,111
2019-04-05 04:35:03,14.9,1.2,13.7,0.0,2.4,111
2019-04-05 04:40:03,15.0,0.9,14.0,0.0,2.3,111
2019-04-05 04:45:03,15.0,1.1,14.0,0.0,2.3,111
2019-04-05 04:50:03,15.1,1.2,13.9,0.0,2.3,111
2019-04-05 04:55:03,15.2,1.4,13.8,0.0,2.3,111
2019-04-05 05:00:03,15.3,1.8,13.5,0.0,2.3,111
2019-04-05 05:05:03,15.4,1.6,13.7,0.0,2.3,111
2019-04-05 05:10:03,15.4,1.8,13.6,0.0,2.3,111
2019-04-05 05:15:03,15.5,2.0,13.6,0.0,2.3,111
2019-04-05 05:20:03,15.6,2.4,13.2,0.0,2.3,111
2019-04-05 05:25:03,15.7,2.4,13.3,0.0,2.3,111
2019-04-05 05:30:03,15.7,2.4,13.4,0.0,2.3,111
2019-04-05 05:35:03,15.8,2.3,13.4,0.0,2.3,111
2019-04-05 05:40:03,15.8,2.4,13.4,0.0,2.3,111
2019-04-05 05:45:03,15.9,2.1,13.7,0.1,2.3,111
2019-04-05 05:50:03,15.9,2.4,13.4,0.2,2.3,111
2019-04-05 05:55:03,15.9,2.4,13.5,0.6,2.3,112
2019-04-05 06:00:03,15.9,2.4,13.4,1.7,2.3,110
2019-04-05 06:05:03,15.9,2.3,13.5,4.0,2.3,47
2019-04-05 06:10:03,15.9,2.3,13.7,6.6,2.3,111
2019-04-05 06:15:03,15.9,2.4,13.5,11.2,2.3,111
2019-04-05 06:20:03,16.0,2.5,13.5,15.7,2.3,111
2019-04-05 06:25:03,15.7,2.4,13.3,20.0,2.3,111
2019-04-05 06:30:03,16.0,2.7,13.3,24.2,2.3,111
2019-04-05 06:35:03,16.0,2.6,13.4,26.5,2.4,112
2019-04-05 06:40:03,16.0,2.4,13.6,27.3,2.3,111
2019-04-05 06:45:03,16.0,2.7,13.3,28.3,2.3,111
2019-04-05 06:50:03,16.0,2.8,13.3,29.3,2.3,111
2019-04-05 06:55:03,16.1,2.6,13.4,29.9,2.4,112
2019-04-05 07:00:03,16.0,2.7,13.4,30.0,2.3,111
2019-04-05 07:05:03,16.1,2.9,13.2,30.3,2.3,111
2019-04-05 07:10:03,16.1,2.7,13.4,30.5,2.3,112
2019-04-05 07:15:03,16.1,2.7,13.3,31.3,2.3,111
2019-04-05 07:20:03,16.1,2.9,13.3,31.7,2.3,111
2019-04-05 07:25:03,16.1,2.8,13.4,31.8,2.3,112
2019-04-05 07:30:03,16.2,2.9,13.3,31.9,2.3,111
2019-04-05 07:35:03,16.2,2.8,13.4,31.9,2.3,111
2019-04-05 07:40:03,16.3,2.8,13.4,32.0,2.3,111
2019-04-05 07:45:03,16.3,3.0,13.3,32.0,2.3,112
2019-04-05 07:50:03,16.4,2.8,13.6,32.0,2.4,111
2019-04-05 07:55:03,16.4,3.2,13.2,32.0,2.3,111
2019-04-05 08:00:03,16.5,3.0,13.5,32.2,2.3,112
2019-04-05 08:05:03,16.5,2.6,14.0,32.2,2.4,110
2019-04-05 08:10:03,16.5,2.8,13.7,32.2,2.3,112
2019-04-05 08:15:03,16.5,3.1,13.4,32.1,2.3,111
2019-04-05 08:20:03,16.6,3.1,13.5,32.2,2.3,111
2019-04-05 08:25:03,16.7,3.3,13.4,32.2,2.3,111
2019-04-05 08:30:03,16.7,3.0,13.7,32.3,2.3,111
2019-04-05 08:35:03,16.8,3.5,13.3,32.3,2.3,111
2019-04-05 08:40:03,16.9,3.5,13.4,32.3,2.3,112
2019-04-05 08:45:03,16.9,3.3,13.6,32.3,2.3,112
2019-04-05 08:50:03,16.9,3.5,13.4,32.3,2.3,111
2019-04-05 08:55:03,16.9,3.7,13.2,32.3,2.3,111
2019-04-05 09:00:03,16.7,3.7,13.0,32.3,2.3,112
2019-04-05 09:05:03,17.1,3.7,13.4,32.3,2.4,111
2019-04-05 09:10:03,17.1,3.6,13.5,32.4,2.4,112
2019-04-05 09:15:03,17.1,3.8,13.4,32.4,2.5,111
2019-04-05 09:20:03,17.3,3.7,13.6,32.4,2.5,112
2019-04-05 09:25:03,17.3,3.8,13.5,32.3,2.5,111
2019-04-05 09:30:03,17.3,3.6,13.7,32.3,2.5,112
2019-04-05 09:35:03,17.3,3.6,13.8,32.4,2.5,112
2019-04-05 09:40:03,17.4,3.6,13.8,32.4,2.5,111
2019-04-05 09:45:03,17.3,3.2,14.1,32.4,2.5,111
2019-04-05 09:50:03,17.3,3.3,13.9,32.3,2.5,112
2019-04-05 09:55:03,17.3,3.7,13.6,32.3,2.5,111
2019-04-05 10:00:03,17.4,3.4,14.0,32.4,2.5,111
2019-04-05 10:05:03,17.3,3.1,14.2,32.3,2.5,112
2019-04-05 10:10:03,17.2,3.1,14.1,32.3,2.5,111
2019-04-05 10:15:04,17.2,2.9,14.3,32.3,2.5,111
2019-04-05 10:20:04,17.1,3.0,14.1,32.3,2.4,111
2019-04-05 10:25:04,17.0,2.9,14.1,32.3,2.3,111
2019-04-05 10:30:04,17.0,2.7,14.3,32.3,2.3,111
2019-04-05 10:35:04,16.9,2.5,14.4,32.3,2.3,111
2019-04-05 10:40:04,16.9,2.4,14.5,32.4,8.3,111
2019-04-05 10:45:04,16.8,2.1,14.7,32.3,8.4,111
2019-04-05 10:50:04,16.4,2.2,14.2,32.4,2.4,111
2019-04-05 10:55:04,16.2,2.9,13.3,32.4,2.3,111
2019-04-05 11:00:04,16.3,3.3,13.1,32.4,2.3,111
2019-04-05 11:05:04,16.8,3.9,12.8,32.5,2.4,112
2019-04-05 11:10:04,17.2,3.7,13.5,32.4,2.4,111
2019-04-05 11:15:04,17.5,3.4,14.1,32.4,2.4,112
2019-04-05 11:20:04,17.6,3.2,14.4,32.4,2.3,111
2019-04-05 11:25:04,17.6,3.1,14.5,32.4,2.3,111
2019-04-05 11:30:04,17.6,3.2,14.3,32.4,2.3,111
2019-04-05 11:35:04,17.5,3.0,14.5,32.4,2.3,112
2019-04-05 11:40:04,17.4,2.9,14.6,32.4,2.4,111
2019-04-05 11:45:04,17.3,2.9,14.4,32.4,2.6,111
2019-04-05 11:50:04,17.3,2.9,14.4,32.4,2.7,111
2019-04-05 11:55:04,17.4,3.3,14.1,32.5,2.4,112
2019-04-05 12:00:04,17.7,3.5,14.2,32.5,2.2,111
2019-04-05 12:05:04,17.9,3.2,14.7,32.5,2.3,112
2019-04-05 12:10:04,18.1,3.3,14.8,32.5,2.3,111
2019-04-05 12:15:04,18.3,3.2,15.0,32.5,2.3,111
2019-04-05 12:20:04,18.5,3.8,14.7,32.5,2.5,112
2019-04-05 12:25:04,19.0,4.3,14.7,32.6,2.5,111
2019-04-05 12:30:04,20.0,1.0,19.0,32.6,2.2,111
2019-04-05 12:35:04,22.1,1.0,21.0,32.6,2.2,112
2019-04-05 12:40:04,24.5,1.0,23.5,32.6,2.3,111
2019-04-05 12:45:04,25.3,2.6,22.7,32.6,2.3,111
2019-04-05 12:50:04,25.8,0.1,25.7,32.6,2.4,111
2019-04-05 12:55:04,25.9,-0.6,26.5,32.6,2.3,112
2019-04-05 13:00:04,26.3,-0.0,26.3,32.6,2.3,111
2019-04-05 13:05:04,26.6,0.7,25.9,32.6,2.3,111
2019-04-05 13:10:04,26.7,0.0,26.7,32.6,2.3,111
2019-04-05 13:15:04,26.6,-0.2,26.8,32.6,2.3,112
2019-04-05 13:20:04,26.4,-0.2,26.6,32.6,2.3,111
2019-04-05 13:25:04,26.3,-0.4,26.8,32.6,2.3,111
2019-04-05 13:30:04,26.2,0.2,26.0,32.6,2.3,112
2019-04-05 13:35:04,26.0,0.7,25.3,32.6,2.3,111
2019-04-05 13:40:04,26.1,1.4,24.7,32.6,2.3,111
2019-04-05 13:45:04,26.5,1.1,25.4,32.6,2.3,110
2019-04-05 13:50:04,26.8,0.9,25.9,32.6,2.3,112
2019-04-05 13:55:04,26.7,1.4,25.3,32.6,2.3,111
2019-04-05 14:00:04,26.5,1.7,24.8,32.6,2.3,111
2019-04-05 14:05:04,26.3,3.1,23.2,32.6,2.3,111
2019-04-05 14:10:04,26.4,2.3,24.1,32.6,2.3,112
2019-04-05 14:15:04,26.2,2.2,24.1,32.6,2.3,111
2019-04-05 14:20:04,26.0,3.2,22.8,32.6,2.3,111
2019-04-05 14:25:04,25.9,3.6,22.4,32.6,2.3,112
2019-04-05 14:30:04,26.0,3.4,22.6,32.6,2.3,111
2019-04-05 14:35:04,26.4,4.7,21.7,32.6,2.3,112
2019-04-05 14:40:04,27.0,2.9,24.1,32.6,2.3,111
2019-04-05 14:45:04,27.0,2.2,24.8,32.6,2.3,112
2019-04-05 14:50:04,26.8,1.4,25.4,32.6,2.3,111
2019-04-05 14:55:04,26.7,0.9,25.8,32.6,2.3,111
2019-04-05 15:00:04,26.4,1.1,25.3,32.6,2.3,111
2019-04-05 15:05:04,26.2,1.3,24.9,32.6,2.3,111
2019-04-05 15:10:04,26.1,1.2,25.0,32.5,2.3,111
2019-04-05 15:15:04,25.9,1.2,24.7,32.5,2.3,111
2019-04-05 15:20:04,25.6,1.2,24.4,32.5,2.3,112
2019-04-05 15:25:04,25.3,1.3,24.0,32.5,2.3,111
2019-04-05 15:30:04,25.0,1.5,23.6,32.5,2.4,111
2019-04-05 15:35:04,24.8,0.9,23.9,32.5,2.4,111
2019-04-05 15:40:04,24.5,1.3,23.2,32.5,2.3,111
2019-04-05 15:45:04,24.5,1.0,23.5,32.5,2.3,111
2019-04-05 15:50:04,24.5,1.2,23.2,32.5,2.3,111
2019-04-05 15:55:04,24.5,1.3,23.2,32.5,2.3,111
2019-04-05 16:00:04,24.5,0.8,23.8,32.5,2.3,112
2019-04-05 16:05:04,24.4,1.1,23.3,32.5,2.3,111
2019-04-05 16:10:04,24.4,1.4,23.1,32.5,2.3,110
2019-04-05 16:15:04,24.4,1.1,23.3,32.5,2.3,111
2019-04-05 16:20:04,24.3,0.8,23.5,32.5,2.3,112
2019-04-05 16:25:04,24.3,0.6,23.7,32.5,2.3,111
2019-04-05 16:30:04,24.2,0.6,23.6,32.5,2.3,111
2019-04-05 16:35:04,24.1,0.8,23.3,32.5,2.3,112
2019-04-05 16:40:04,24.0,1.0,23.1,32.5,2.3,111
2019-04-05 16:45:04,24.0,1.0,23.0,32.5,2.3,111
2019-04-05 16:50:04,24.0,0.5,23.5,32.5,2.3,111
2019-04-05 16:55:04,23.9,0.3,23.6,32.4,2.3,112
2019-04-05 17:00:04,23.7,0.8,23.0,32.4,2.3,111
2019-04-05 17:05:04,23.7,0.9,22.8,32.4,2.3,111
2019-04-05 17:10:04,23.8,0.5,23.2,32.4,2.3,111
2019-04-05 17:15:04,23.7,0.6,23.1,32.4,2.3,111
2019-04-05 17:20:04,23.6,0.7,22.8,32.4,2.3,112
2019-04-05 17:25:04,23.5,1.1,22.4,32.4,2.3,111
2019-04-05 17:30:04,23.5,1.4,22.1,32.4,2.3,111
2019-04-05 17:35:04,23.5,1.0,22.4,32.4,2.3,111
2019-04-05 17:40:04,23.5,1.3,22.2,32.4,2.3,111
2019-04-05 17:45:04,23.5,1.0,22.5,32.4,2.3,111
2019-04-05 17:50:04,23.5,0.7,22.8,32.4,2.3,111
2019-04-05 17:55:04,23.4,0.7,22.7,32.4,2.3,111
2019-04-05 18:00:04,23.4,0.4,23.0,32.3,2.3,111
2019-04-05 18:05:04,23.3,0.3,23.0,32.3,2.3,111
2019-04-05 18:10:04,23.3,0.1,23.2,32.3,2.3,112
2019-04-05 18:15:04,23.2,0.2,23.0,32.3,2.6,111
2019-04-05 18:20:04,23.1,0.4,22.7,32.3,2.6,112
2019-04-05 18:25:04,22.9,0.5,22.4,32.2,2.5,111
2019-04-05 18:30:04,22.6,0.6,22.0,32.2,2.3,111
2019-04-05 18:35:04,22.5,-0.0,22.6,32.2,2.3,111
2019-04-05 18:40:04,22.5,-0.7,23.2,32.2,2.3,112
2019-04-05 18:45:04,22.3,-1.4,23.7,32.2,2.3,112
2019-04-05 18:50:04,22.2,-1.6,23.8,32.1,2.3,112
2019-04-05 18:55:04,22.1,-0.9,23.0,32.0,2.2,111
2019-04-05 19:00:04,21.6,-1.3,22.9,32.0,2.1,112
2019-04-05 19:05:04,21.9,-1.9,23.8,32.0,2.0,111
2019-04-05 19:10:04,21.8,-1.9,23.8,31.9,1.9,112
2019-04-05 19:15:04,21.8,-1.7,23.5,31.7,1.9,112
2019-04-05 19:20:04,21.7,-1.9,23.6,31.5,1.9,111
2019-04-05 19:25:04,21.7,-2.1,23.7,31.2,1.8,112
2019-04-05 19:30:04,21.6,-1.8,23.4,30.8,1.8,112
2019-04-05 19:35:04,21.5,-2.0,23.4,30.2,1.9,111
2019-04-05 19:40:04,21.4,-2.5,23.9,29.3,1.9,112
2019-04-05 19:45:04,21.4,-2.9,24.3,28.1,1.9,111
2019-04-05 19:50:04,21.3,-3.2,24.5,26.4,1.9,112
2019-04-05 19:55:04,21.3,-3.3,24.5,23.5,2.0,112
2019-04-05 20:00:04,21.2,-3.3,24.6,19.0,2.1,111
2019-04-05 20:05:04,21.2,-3.5,24.7,13.1,2.1,112
2019-04-05 20:10:04,21.5,-3.8,25.2,7.6,1.9,112
2019-04-05 20:15:04,21.5,-3.3,24.9,4.0,1.9,111
2019-04-05 20:20:04,21.5,-3.4,24.9,1.9,1.9,112
2019-04-05 20:25:04,21.4,-3.6,25.0,0.9,1.9,112
2019-04-05 20:30:04,21.4,-4.5,25.9,0.4,2.0,112
2019-04-05 20:35:04,21.4,-4.7,26.1,0.2,2.0,111
2019-04-05 20:40:04,21.4,-4.8,26.1,0.1,2.0,112
2019-04-05 20:45:04,21.3,-4.5,25.8,0.0,2.2,112
2019-04-05 20:50:04,21.3,-4.7,26.0,0.0,2.2,112
2019-04-05 20:55:04,21.3,-4.8,26.0,0.0,2.2,111
2019-04-05 21:00:04,21.3,-5.2,26.5,0.0,2.2,111
2019-04-05 21:05:04,21.2,-6.0,27.2,0.0,2.3,112
2019-04-05 21:10:04,21.1,-6.5,27.6,0.0,2.3,111
2019-04-05 21:15:04,21.1,-6.1,27.2,0.0,2.3,112
2019-04-05 21:20:04,21.1,-5.8,26.9,0.0,2.3,112
2019-04-05 21:25:04,21.1,-6.0,27.1,0.0,2.3,111
2019-04-05 21:30:04,21.1,-6.5,27.7,0.0,2.3,112
2019-04-05 21:35:04,21.1,-6.6,27.7,0.0,2.3,112
2019-04-05 21:40:04,21.1,-4.4,25.5,0.0,2.3,111
2019-04-05 21:45:04,21.1,-0.5,21.6,0.0,2.3,112
2019-04-05 21:50:04,21.2,-0.2,21.4,0.0,2.3,111
2019-04-05 21:55:04,21.2,-0.3,21.5,0.0,2.3,112
2019-04-05 22:00:04,21.3,-0.6,21.9,0.0,2.3,111
2019-04-05 22:05:04,21.3,-0.6,21.9,0.0,2.3,112
2019-04-05 22:10:04,21.4,-0.6,22.0,0.0,2.3,112
2019-04-05 22:15:04,21.4,-0.7,22.1,0.0,2.2,112
2019-04-05 22:20:04,21.5,-0.7,22.2,0.0,2.2,111
2019-04-05 22:25:04,21.5,-1.0,22.5,0.0,2.2,112
2019-04-05 22:30:04,21.4,-0.8,22.2,0.0,2.2,111
2019-04-05 22:35:04,21.5,-0.9,22.3,0.0,2.2,112
2019-04-05 22:40:04,21.4,-0.8,22.2,0.0,2.3,112
2019-04-05 22:45:04,21.3,-0.9,22.2,0.0,2.3,112
2019-04-05 22:50:04,21.3,-0.8,22.1,0.0,2.3,112
2019-04-05 22:55:04,21.2,-0.6,21.8,0.0,2.3,111
2019-04-05 23:00:04,21.2,-0.4,21.7,0.0,2.3,112
2019-04-05 23:05:04,21.2,-0.4,21.6,0.0,2.3,112
2019-04-05 23:10:04,21.1,-0.1,21.2,0.0,2.3,111
2019-04-05 23:15:04,20.9,0.3,20.6,0.0,2.3,112
2019-04-05 23:20:04,18.9,0.7,18.2,0.0,2.4,111
2019-04-05 23:25:04,17.1,0.4,16.7,0.0,2.2,111
2019-04-05 23:30:04,16.7,0.4,16.3,0.0,2.2,111
2019-04-05 23:35:04,16.5,-0.1,16.6,0.0,2.4,112
2019-04-05 23:40:04,16.3,0.1,16.2,0.0,2.3,111
2019-04-05 23:45:04,16.2,-0.6,16.8,0.0,2.3,112
2019-04-05 23:50:04,16.1,-0.9,17.0,0.0,2.3,112
2019-04-05 23:55:04,16.0,-0.8,16.8,0.0,2.3,112
